Location: Hastringsfeld
(50.9620°N, 10.4787°E)
Time: 20:03:27
(UTC+00:00)

Meteor 1-11 Rocket - Pass Details

Date: 26 September 2023
Orbit: 830 x 916 km, 81.2° (Epoch: 09 December)

Event Time Altitude Azimuth Distance (km) Brightness Sun altitude
Rises 04:02:51 0° 347° (NNW) 3,484 6.9 -11.3°
Reaches altitude 10° 04:05:17 10° 347° (NNW) 2,554 6.2 -10.9°
Maximum altitude 04:11:07 88° 260° (W) 905 3.8 -10.0°
Drops below altitude 10° 04:17:03 10° 170° (S) 2,586 6.2 -9.1°
Sets 04:19:31 0° 171° (S) 3,530 6.9 -8.7°
